Weather History for Campo, CA

Change the Weather History Date:

Tuesday, November 1, 2011

  Actual Average Record
Temperature  
Mean Temperature 58 °F 57 °F  
Max Temperature 78 °F 75 °F 89 °F (1960)
Min Temperature 37 °F 39 °F 27 °F (1979)
Degree Days  
Heating Degree Days 7 8  
Month to date heating degree days 7 8  
Since 1 July heating degree days 193 218  
Cooling Degree Days 0 0  
Month to date cooling degree days 0 0  
Year to date cooling degree days 733 839  
Growing Degree Days 8 (Base 50)    
Moisture  
Dew Point 25 °F    
Average Humidity 34    
Maximum Humidity 59    
Minimum Humidity 8    
Precipitation  
Precipitation 0.00 in 0.03 in 0.44 in (1987)
Month to date precipitation 0.00 0.03  
Year to date precipitation 8.56 12.36  
Since 1 July precipitation 0.81 2.21  
Snow  
Snow 0.00 in - - ()
Month to date snowfall 0.0  
Year to date snowfall 0.0  
Since 1 July snowfall 0.0  
Snow Depth 0.00 in    
Sea Level Pressure  
Sea Level Pressure 29.89 in    
Wind  
Wind Speed 9 mph (ENE)    
Max Wind Speed 20 mph    
Max Gust Speed 23 mph    
T = Trace of Precipitation, MM = Missing Value Source: NWS Daily Summary

Daily Weather History Graph

Daily Weather History Graph

Search for Another Location

Airport:

Trip Planner

Search our weather history database for the weather conditions in past years. The results will help you decide how hot, cold, wet, or windy it might be!

Date:

Astronomy

Nov. 01, 2011 Rise Set
Actual Time 7:03 AM PDT 5:55 PM PDT
Civil Twilight 6:37 AM PDT 6:20 PM PDT
Nautical Twilight 6:08 AM PDT 6:49 PM PDT
Astronomical Twilight 5:39 AM PDT 7:18 PM PDT
Moon 12:49 PM PDT (11/1) 11:44 PM PDT (11/1)
Length of Visible Light 11h 42m
Length of Day
10h 52m
Waxing Crescent, 41% of the Moon is Illuminated
Nov 1
Waxing Crescent
Nov 2
First Quarter
Nov 10
Full
Nov 18
Last Quarter
Nov 24
New

Hourly Weather History & Observations

Time (PDT) Temp. Windchill Dew Point Humidity Pressure Visibility Wind Dir Wind Speed Gust Speed Precip Events Conditions
12:52 AM 45.0 °F 41.8 °F 28.9 °F 53% 29.91 in - NE 5.8 mph - N/A   Unknown
1:52 AM 41.0 °F 36.4 °F 27.0 °F 57% 29.91 in - NE 6.9 mph - N/A   Unknown
2:52 AM 39.9 °F 34.5 °F 26.1 °F 58% 29.90 in - ENE 8.1 mph - N/A   Unknown
3:52 AM 39.9 °F 35.1 °F 26.1 °F 58% 29.89 in - ENE 6.9 mph - N/A   Unknown
4:52 AM 39.9 °F 35.1 °F 25.0 °F 55% 29.89 in - NE 6.9 mph - N/A   Unknown
5:52 AM 41.0 °F 35.8 °F 25.0 °F 53% 29.90 in - NE 8.1 mph - N/A   Unknown
6:52 AM 39.9 °F 35.1 °F 25.0 °F 55% 29.91 in - NE 6.9 mph - N/A   Unknown
7:52 AM 42.1 °F 39.2 °F 25.0 °F 51% 29.93 in - NE 4.6 mph - N/A   Unknown
8:52 AM 57.9 °F - 27.0 °F 31% 29.91 in - Calm Calm - N/A   Unknown
9:52 AM 69.1 °F - 18.0 °F 14% 29.89 in - Calm Calm - N/A   Unknown
10:52 AM 73.9 °F - 12.9 °F 10% 29.88 in - SW 10.4 mph - N/A   Unknown
11:52 AM 77.0 °F - 12.9 °F 9% 29.87 in - SW 12.7 mph - N/A   Unknown
12:52 PM 75.9 °F - 17.1 °F 11% 29.86 in - SSW 16.1 mph 23.0 mph N/A   Unknown
1:52 PM 78.1 °F - 21.0 °F 12% 29.84 in - SW 18.4 mph - N/A   Unknown
2:52 PM 75.9 °F - 21.0 °F 13% 29.85 in - SSW 15.0 mph - N/A   Unknown
3:52 PM 75.0 °F - 23.0 °F 14% 29.85 in - SW 11.5 mph - N/A   Unknown
4:52 PM 73.0 °F - 30.0 °F 20% 29.86 in - SW 9.2 mph - N/A   Unknown
5:52 PM 66.9 °F - 30.9 °F 26% 29.88 in - SW 6.9 mph - N/A   Unknown
6:52 PM 55.0 °F - 30.0 °F 38% 29.92 in - NE 6.9 mph - N/A   Unknown
7:52 PM 52.0 °F - 28.9 °F 41% 29.94 in - ENE 5.8 mph - N/A   Unknown
8:52 PM 52.0 °F - 28.9 °F 41% 29.93 in - NE 6.9 mph - N/A   Unknown
9:52 PM 51.1 °F - 28.9 °F 43% 29.93 in - Calm Calm - N/A   Unknown
10:52 PM 48.0 °F - 28.0 °F 46% 29.92 in - ENE 5.8 mph - N/A   Unknown
11:52 PM 63.0 °F - 21.9 °F 21% 29.90 in - ENE 12.7 mph - N/A   Unknown